TimeEDT,TemperatureF,Dew PointF,Humidity,Sea Level PressureIn,VisibilityMPH,Wind Direction,Wind SpeedMPH,Gust SpeedMPH,PrecipitationIn,Events,Conditions,WindDirDegrees,DateUTC
12:09 AM,71.6,69.8,94,30.04,3.0,Calm,Calm,-,N/A,,Overcast,0,2013-07-10 04:09:00
12:27 AM,71.6,69.8,94,30.03,3.0,Calm,Calm,-,N/A,,Overcast,0,2013-07-10 04:27:00
12:48 AM,71.6,69.8,94,30.03,3.0,SSW,3.5,-,N/A,,Overcast,200,2013-07-10 04:48:00
1:09 AM,71.6,69.8,94,30.02,2.5,SSW,3.5,-,N/A,,Scattered Clouds,210,2013-07-10 05:09:00
1:27 AM,71.6,69.8,94,30.01,2.5,SSW,3.5,-,N/A,,Clear,200,2013-07-10 05:27:00
1:48 AM,71.6,69.8,94,30.01,2.5,Calm,Calm,-,N/A,,Clear,0,2013-07-10 05:48:00
2:09 AM,71.6,69.8,94,30.01,2.5,Calm,Calm,-,N/A,,Clear,0,2013-07-10 06:09:00
2:27 AM,71.6,69.8,94,30.01,2.5,Calm,Calm,-,N/A,,Clear,0,2013-07-10 06:27:00
2:48 AM,71.6,69.8,94,30.00,2.5,Calm,Calm,-,N/A,,Clear,0,2013-07-10 06:48:00
3:09 AM,71.6,69.8,94,30.00,2.5,Calm,Calm,-,N/A,,Clear,0,2013-07-10 07:09:00
3:27 AM,69.8,68.0,94,30.00,2.5,Calm,Calm,-,N/A,,Clear,0,2013-07-10 07:27:00
3:48 AM,69.8,68.0,94,30.01,3.0,Calm,Calm,-,N/A,,Mostly Cloudy,0,2013-07-10 07:48:00
4:09 AM,71.6,69.8,94,30.00,3.0,SW,3.5,-,N/A,,Overcast,230,2013-07-10 08:09:00
4:27 AM,71.6,69.8,94,30.00,2.5,SW,3.5,-,N/A,,Scattered Clouds,220,2013-07-10 08:27:00
4:48 AM,71.6,69.8,94,30.00,2.5,SSW,3.5,-,N/A,,Scattered Clouds,210,2013-07-10 08:48:00
5:09 AM,71.6,69.8,94,30.00,2.5,Calm,Calm,-,N/A,,Scattered Clouds,0,2013-07-10 09:09:00
5:30 AM,69.8,68.0,94,30.00,3.0,Calm,Calm,-,N/A,,Mostly Cloudy,0,2013-07-10 09:30:00
5:48 AM,69.8,68.0,94,30.00,2.5,Calm,Calm,-,N/A,,Mostly Cloudy,0,2013-07-10 09:48:00
6:09 AM,69.8,68.0,94,30.01,2.0,Calm,Calm,-,N/A,,Mostly Cloudy,0,2013-07-10 10:09:00
6:30 AM,71.6,69.8,94,30.01,2.5,Calm,Calm,-,N/A,,Mostly Cloudy,0,2013-07-10 10:30:00
6:48 AM,71.6,69.8,94,30.00,4.0,Calm,Calm,-,N/A,,Scattered Clouds,0,2013-07-10 10:48:00
7:09 AM,71.6,69.8,94,30.01,3.0,SSW,3.5,-,N/A,,Clear,200,2013-07-10 11:09:00
7:30 AM,73.4,71.6,94,30.01,5.0,Calm,Calm,-,N/A,,Scattered Clouds,0,2013-07-10 11:30:00
7:48 AM,77.0,71.6,83,30.01,7.0,SSW,4.6,-,N/A,,Mostly Cloudy,210,2013-07-10 11:48:00
8:09 AM,77.0,73.4,89,30.00,7.0,WSW,4.6,-,N/A,,Overcast,240,2013-07-10 12:09:00
8:30 AM,77.0,73.4,89,30.01,7.0,WSW,3.5,-,N/A,,Overcast,240,2013-07-10 12:30:00
8:48 AM,77.0,73.4,89,30.01,10.0,WSW,4.6,-,N/A,,Overcast,240,2013-07-10 12:48:00
9:09 AM,77.0,73.4,89,30.01,10.0,SW,3.5,-,N/A,,Mostly Cloudy,230,2013-07-10 13:09:00
9:30 AM,77.0,73.4,89,30.01,7.0,South,4.6,-,N/A,,Overcast,180,2013-07-10 13:30:00
9:48 AM,77.0,73.4,89,30.01,7.0,SSW,4.6,-,N/A,,Overcast,210,2013-07-10 13:48:00
10:09 AM,77.0,73.4,89,30.01,7.0,Calm,Calm,-,N/A,,Scattered Clouds,0,2013-07-10 14:09:00
10:30 AM,77.0,73.4,89,30.01,10.0,SW,3.5,-,N/A,,Scattered Clouds,230,2013-07-10 14:30:00
10:48 AM,78.8,73.4,83,30.01,10.0,SW,3.5,-,N/A,,Mostly Cloudy,230,2013-07-10 14:48:00
11:09 AM,78.8,73.4,83,30.01,10.0,SW,4.6,-,N/A,,Overcast,230,2013-07-10 15:09:00
11:30 AM,80.6,73.4,79,30.01,10.0,WSW,4.6,-,N/A,,Mostly Cloudy,240,2013-07-10 15:30:00
11:48 AM,78.8,71.6,78,30.02,10.0,Calm,Calm,-,N/A,,Mostly Cloudy,0,2013-07-10 15:48:00
12:09 PM,80.6,73.4,79,30.01,10.0,SW,3.5,-,N/A,,Mostly Cloudy,220,2013-07-10 16:09:00
12:30 PM,82.4,71.6,70,30.00,10.0,WSW,5.8,-,N/A,,Scattered Clouds,250,2013-07-10 16:30:00
12:48 PM,80.6,73.4,79,30.00,10.0,WSW,4.6,-,N/A,,Mostly Cloudy,240,2013-07-10 16:48:00
1:09 PM,80.6,71.6,74,29.99,10.0,WSW,5.8,-,N/A,,Mostly Cloudy,250,2013-07-10 17:09:00
1:30 PM,80.6,71.6,74,29.99,10.0,SW,5.8,-,N/A,,Scattered Clouds,220,2013-07-10 17:30:00
1:51 PM,80.6,71.6,74,29.97,10.0,South,6.9,-,N/A,,Clear,190,2013-07-10 17:51:00
2:09 PM,82.4,73.4,74,29.97,10.0,SW,5.8,-,N/A,,Clear,230,2013-07-10 18:09:00
2:30 PM,84.2,73.4,70,29.95,10.0,SSW,6.9,-,N/A,,Clear,210,2013-07-10 18:30:00
2:51 PM,86.0,73.4,66,29.93,10.0,SSW,10.4,-,N/A,,Clear,210,2013-07-10 18:51:00
3:09 PM,86.0,71.6,62,29.91,10.0,SW,10.4,16.1,N/A,,Clear,220,2013-07-10 19:09:00
3:30 PM,84.2,71.6,66,29.90,10.0,SSW,5.8,-,N/A,,Clear,210,2013-07-10 19:30:00
3:51 PM,84.2,73.4,70,29.90,10.0,SSW,8.1,-,N/A,,Clear,210,2013-07-10 19:51:00
4:09 PM,84.2,71.6,66,29.90,10.0,SW,6.9,-,N/A,,Clear,230,2013-07-10 20:09:00
4:30 PM,84.2,73.4,70,29.90,10.0,WSW,4.6,-,N/A,,Clear,250,2013-07-10 20:30:00
4:51 PM,84.2,73.4,70,29.89,10.0,Calm,Calm,-,N/A,,Clear,0,2013-07-10 20:51:00
5:09 PM,86.0,73.4,66,29.90,10.0,Calm,Calm,-,N/A,,Clear,0,2013-07-10 21:09:00
5:30 PM,84.2,73.4,70,29.90,10.0,SW,4.6,-,N/A,,Clear,220,2013-07-10 21:30:00
5:51 PM,82.4,73.4,74,29.90,10.0,SSW,5.8,-,N/A,,Clear,210,2013-07-10 21:51:00
6:09 PM,82.4,73.4,74,29.89,10.0,SSW,3.5,-,N/A,,Clear,200,2013-07-10 22:09:00
6:30 PM,80.6,73.4,79,29.90,10.0,Calm,Calm,-,N/A,,Clear,0,2013-07-10 22:30:00
6:51 PM,80.6,73.4,79,29.90,10.0,Calm,Calm,-,N/A,,Clear,0,2013-07-10 22:51:00
7:09 PM,80.6,73.4,79,29.91,10.0,Calm,Calm,-,N/A,,Clear,0,2013-07-10 23:09:00
7:30 PM,78.8,73.4,83,29.91,10.0,Calm,Calm,-,N/A,,Clear,0,2013-07-10 23:30:00
7:51 PM,78.8,73.4,83,29.90,10.0,Calm,Calm,-,N/A,,Clear,0,2013-07-10 23:51:00
8:09 PM,78.8,73.4,83,29.91,10.0,Calm,Calm,-,N/A,,Scattered Clouds,0,2013-07-11 00:09:00
8:30 PM,78.8,71.6,78,29.93,10.0,SW,16.1,26.5,N/A,,Mostly Cloudy,220,2013-07-11 00:30:00
8:51 PM,77.0,68.0,74,29.94,10.0,SW,9.2,21.9,N/A,,Scattered Clouds,230,2013-07-11 00:51:00
9:09 PM,75.2,68.0,78,29.95,10.0,SW,6.9,10.4,N/A,,Scattered Clouds,230,2013-07-11 01:09:00
9:30 PM,73.4,68.0,83,29.94,10.0,South,5.8,-,N/A,,Scattered Clouds,180,2013-07-11 01:30:00
9:51 PM,73.4,69.8,88,29.93,10.0,SSW,3.5,-,N/A,,Clear,210,2013-07-11 01:51:00
10:09 PM,71.6,69.8,94,29.93,10.0,Calm,Calm,-,N/A,,Clear,0,2013-07-11 02:09:00
10:30 PM,71.6,69.8,94,29.92,10.0,Calm,Calm,-,N/A,,Scattered Clouds,0,2013-07-11 02:30:00
10:48 PM,71.6,68.0,88,29.91,10.0,Calm,Calm,-,N/A,,Scattered Clouds,0,2013-07-11 02:48:00
11:12 PM,71.6,69.8,94,29.91,10.0,South,4.6,-,N/A,,Clear,180,2013-07-11 03:12:00
11:30 PM,71.6,69.8,94,29.91,10.0,South,4.6,-,N/A,,Clear,190,2013-07-11 03:30:00
11:51 PM,71.6,69.8,94,29.91,10.0,Calm,Calm,-,N/A,,Clear,0,2013-07-11 03:51:00